DW2537 Weather Reports


Display with metric or nautical units.
time (UTC)temp
F
wind
direction
speed
MPH
gust
MPH
rain 1hr
in
rain 24hr
in
rain mn
in
humidity
%
barometer
mb
20260509105520 57 168 0.0 2.0 0.00 0.00 0.00 64 1011.3
20260509105021 56 76 0.0 2.0 0.00 0.00 0.00 63 1011.3
20260509104534 56 0 0.0 2.0 0.00 0.00 0.00 66 1011.2
20260509104018 56 85 0.0 3.0 0.00 0.00 0.00 63 1011.2
20260509103519 56 0 0.0 3.0 0.00 0.00 0.00 63 1011.1
20260509103039 56 192 0.0 2.0 0.00 0.00 0.00 65 1011.0
20260509102518 56 0 0.0 2.0 0.00 0.00 0.00 65 1011.0
20260509102019 56 0 0.0 2.0 0.00 0.00 0.00 65 1011.1
20260509101540 56 0 0.0 2.0 0.00 0.00 0.00 64 1011.1
20260509101019 56 0 0.0 1.0 0.00 0.00 0.00 65 1010.9
20260509100519 56 0 0.0 2.0 0.00 0.00 0.00 64 1010.9
20260509100035 56 0 0.0 2.0 0.00 0.00 0.00 64 1010.9
20260509095518 56 215 0.0 2.0 0.00 0.00 0.00 64 1010.9
20260509095019 56 0 0.0 2.0 0.00 0.00 0.00 65 1010.8
20260509094542 56 0 0.0 2.0 0.00 0.00 0.00 65 1010.9
20260509094018 56 213 0.0 2.0 0.00 0.00 0.00 62 1010.9
20260509093519 57 196 0.0 2.0 0.00 0.00 0.00 64 1010.9
20260509093034 57 0 0.0 2.0 0.00 0.00 0.00 64 1010.9
20260509092521 57 196 0.0 2.0 0.00 0.00 0.00 63 1011.0
20260509092018 57 0 0.0 2.0 0.00 0.00 0.00 63 1011.1
20260509091531 57 0 0.0 2.0 0.00 0.00 0.00 62 1011.0
20260509091015 57 0 0.0 2.0 0.00 0.00 0.00 63 1011.1
20260509090517 57 0 0.0 2.0 0.00 0.00 0.00 63 1010.9
20260509090032 57 146 0.0 2.0 0.00 0.00 0.00 63 1011.0
20260509085515 57 0 0.0 2.0 0.00 0.00 0.00 63 1011.0
20260509085015 57 0 0.0 2.0 0.00 0.00 0.00 59 1011.1
20260509084537 57 0 0.0 2.0 0.00 0.00 0.00 62 1011.3
20260509084022 57 266 0.0 2.0 0.00 0.00 0.00 60 1011.3
20260509083518 57 266 0.0 2.0 0.00 0.00 0.00 61 1011.4
20260509083038 57 0 0.0 2.0 0.00 0.00 0.00 62 1011.4
20260509082521 57 244 0.0 2.0 0.00 0.00 0.00 59 1011.4
20260509082019 57 0 0.0 3.0 0.00 0.00 0.00 62 1011.4
20260509081536 57 236 0.0 3.0 0.00 0.00 0.00 62 1011.6
20260509081016 57 171 0.0 2.0 0.00 0.00 0.00 59 1011.6
20260509080515 57 246 0.0 2.0 0.00 0.00 0.00 60 1011.6
20260509080039 56 271 0.0 2.0 0.00 0.00 0.00 61 1011.6
20260509075516 56 0 1.0 2.0 0.00 0.00 0.00 61 1011.6
20260509075015 56 336 0.0 2.0 0.00 0.00 0.00 62 1011.5
20260509074532 56 0 0.0 2.0 0.00 0.00 0.00 66 1011.6
20260509074015 55 268 0.0 4.0 0.00 0.00 0.00 67 1011.6
20260509073515 55 0 0.0 4.0 0.00 0.00 0.00 65 1011.6
20260509073035 55 22 1.0 2.0 0.00 0.00 0.00 65 1011.6
20260509072518 55 342 0.0 2.0 0.00 0.00 0.00 66 1011.6
20260509072014 55 248 0.0 2.0 0.00 0.00 0.00 66 1011.7
20260509071532 55 207 0.0 2.0 0.00 0.00 0.00 70 1011.7
20260509071018 54 0 0.0 2.0 0.00 0.00 0.00 70 1011.6
20260509070519 54 0 0.0 2.0 0.00 0.00 0.00 70 1011.7
20260509070033 54 257 0.0 2.0 0.00 0.00 0.00 71 1011.7
20260509065515 54 227 0.0 2.0 0.00 0.00 0.00 71 1011.7
20260509065015 54 0 0.0 2.0 0.00 0.00 0.00 68 1011.8
20260509064538 53 250 0.0 2.0 0.00 0.00 0.00 69 1011.9
20260509064018 53 0 0.0 2.0 0.00 0.00 0.00 69 1011.9
20260509063518 53 0 0.0 2.0 0.00 0.00 0.00 71 1011.9
20260509063038 53 0 0.0 2.0 0.00 0.00 0.00 73 1012.1
20260509062515 53 0 0.0 2.0 0.00 0.00 0.00 74 1012.1
20260509062016 53 232 0.0 2.0 0.00 0.00 0.00 70 1012.1
20260509061538 53 0 0.0 2.0 0.00 0.00 0.00 73 1012.0
20260509061019 53 0 0.0 2.0 0.00 0.00 0.00 73 1012.2
20260509060515 53 0 0.0 2.0 0.00 0.00 0.00 69 1012.2
20260509060033 53 232 0.0 3.0 0.00 0.00 0.00 73 1012.2
20260509055515 52 0 0.0 3.0 0.00 0.00 0.00 73 1012.2
20260509055015 52 228 0.0 2.0 0.00 0.00 0.00 73 1012.3
20260509054533 52 0 0.0 2.0 0.00 0.00 0.00 73 1012.2
20260509054017 52 0 0.0 2.0 0.00 0.00 0.00 73 1012.2
20260509053516 52 0 0.0 2.0 0.00 0.00 0.00 73 1012.2
20260509053032 52 0 0.0 2.0 0.00 0.00 0.00 73 1012.2
20260509052515 52 0 0.0 2.0 0.00 0.00 0.00 73 1012.3
20260509052018 52 0 0.0 2.0 0.00 0.00 0.00 72 1012.2
20260509051530 52 230 0.0 2.0 0.00 0.00 0.00 72 1012.1
20260509051015 52 0 0.0 2.0 0.00 0.00 0.00 72 1012.1
20260509050519 53 0 0.0 2.0 0.00 0.00 0.00 72 1012.2
20260509050056 53 0 0.0 2.0 0.00 0.00 0.00 72 1012.3
20260509045517 53 0 0.0 2.0 0.00 0.00 0.00 71 1012.3
20260509045018 53 0 0.0 2.0 0.00 0.00 0.00 71 1012.3
20260509044546 53 230 0.0 2.0 0.00 0.00 0.00 70 1012.3
20260509044016 53 0 0.0 2.0 0.00 0.00 0.00 70 1012.3
20260509043516 54 0 0.0 2.0 0.00 0.00 0.00 70 1012.4
20260509043034 54 0 0.0 2.0 0.00 0.00 0.00 69 1012.4
20260509042515 54 0 0.0 2.0 0.00 0.00 0.00 68 1012.3
20260509042016 54 0 0.0 2.0 0.00 0.00 0.00 68 1012.4
20260509041539 54 0 0.0 2.0 0.00 0.00 0.00 67 1012.2
20260509041016 54 0 0.0 2.0 0.00 0.00 0.00 67 1012.3
20260509040515 55 0 0.0 2.0 0.00 0.00 0.00 67 1012.3
20260509040033 55 232 0.0 2.0 0.00 0.00 0.00 67 1012.4
20260509035515 55 101 0.0 2.0 0.00 0.00 0.00 67 1012.4
20260509035017 55 80 0.0 2.0 0.00 0.00 0.00 66 1012.4
20260509034542 55 80 0.0 3.0 0.00 0.00 0.00 64 1012.4
20260509034018 55 69 0.0 3.0 0.00 0.00 0.00 67 1012.4
20260509033519 55 0 1.0 3.0 0.00 0.00 0.00 64 1012.4
20260509033033 55 63 0.0 3.0 0.00 0.00 0.00 64 1012.6
20260509032516 54 78 1.0 3.0 0.00 0.00 0.00 64 1012.7
20260509032017 54 49 0.0 2.0 0.00 0.00 0.00 65 1012.6
20260509031532 54 85 0.0 2.0 0.00 0.00 0.00 70 1012.7
20260509031016 54 0 0.0 2.0 0.00 0.00 0.00 70 1012.7
20260509030516 54 121 0.0 2.0 0.00 0.00 0.00 70 1012.7
20260509030038 55 0 0.0 0.0 0.00 0.00 0.00 70 1012.7
20260509025515 55 0 0.0 0.0 0.00 0.00 0.00 70 1012.7
20260509025015 55 0 0.0 0.0 0.00 0.00 0.00 71 1012.7
20260509024530 55 0 0.0 1.0 0.00 0.00 0.00 70 1012.6
20260509024015 56 0 0.0 1.0 0.00 0.00 0.00 70 1012.6
20260509023519 56 0 0.0 1.0 0.00 0.00 0.00 66 1012.5
20260509023039 56 0 0.0 2.0 0.00 0.00 0.00 69 1012.6
20260509022515 57 0 0.0 2.0 0.00 0.00 0.00 68 1012.6
20260509022018 57 121 0.0 2.0 0.00 0.00 0.00 66 1012.5
20260509021534 57 0 0.0 2.0 0.00 0.00 0.00 66 1012.6
20260509021016 58 0 0.0 2.0 0.00 0.00 0.00 65 1012.6
20260509020520 58 0 0.0 2.0 0.00 0.00 0.00 65 1012.5
20260509020032 58 0 0.0 2.0 0.00 0.00 0.00 64 1012.5
20260509015516 59 0 0.0 2.0 0.00 0.00 0.00 63 1012.5
20260509015015 59 0 0.0 2.0 0.00 0.00 0.00 62 1012.5
20260509014531 59 121 0.0 1.0 0.00 0.00 0.00 62 1012.6
20260509014015 60 0 0.0 1.0 0.00 0.00 0.00 61 1012.5
20260509013515 60 0 0.0 2.0 0.00 0.00 0.00 60 1012.5
20260509013031 61 0 0.0 2.0 0.00 0.00 0.00 59 1012.5
20260509012518 61 0 0.0 2.0 0.00 0.00 0.00 58 1012.5
20260509012018 61 0 0.0 2.0 0.00 0.00 0.00 57 1012.4
20260509011538 61 0 0.0 2.0 0.00 0.00 0.00 56 1012.5
20260509011018 62 0 0.0 2.0 0.00 0.00 0.00 55 1012.4
20260509010518 62 121 0.0 2.0 0.00 0.00 0.00 54 1012.4
20260509010033 62 0 0.0 2.0 0.00 0.00 0.00 53 1012.2
20260509005519 62 126 0.0 2.0 0.00 0.00 0.00 52 1012.2
20260509005016 62 232 0.0 2.0 0.00 0.00 0.00 50 1012.2
20260509004538 62 0 0.0 2.0 0.00 0.00 0.00 50 1012.1
20260509004018 62 0 0.0 2.0 0.00 0.00 0.00 49 1012.1
20260509003516 62 0 0.0 2.0 0.00 0.00 0.00 49 1012.0
20260509003034 62 234 0.0 2.0 0.00 0.00 0.00 45 1012.0
20260509002518 63 0 0.0 2.0 0.00 0.00 0.00 48 1011.9
20260509002015 63 234 0.0 2.0 0.00 0.00 0.00 48 1011.8
20260509001538 63 0 0.0 0.0 0.00 0.00 0.00 47 1011.7
20260509001016 63 0 0.0 2.0 0.00 0.00 0.00 47 1011.7
20260509000518 63 0 0.0 2.0 0.00 0.00 0.00 44 1011.6
20260509000041 63 0 0.0 2.0 0.00 0.00 0.00 47 1011.5
20260508235518 64 234 0.0 2.0 0.00 0.00 0.00 48 1011.5
20260508235018 64 0 0.0 2.0 0.00 0.00 0.00 48 1011.5
20260508234538 64 0 0.0 2.0 0.00 0.00 0.00 43 1011.5
20260508234018 64 232 0.0 2.0 0.00 0.00 0.00 45 1011.5
20260508233516 64 246 0.0 2.0 0.00 0.00 0.00 46 1011.4
20260508233030 64 216 0.0 2.0 0.00 0.00 0.00 48 1011.4
20260508232515 64 213 0.0 2.0 0.00 0.00 0.00 47 1011.4
20260508232016 65 0 0.0 2.0 0.00 0.00 0.00 44 1011.4
20260508231533 65 0 0.0 2.0 0.00 0.00 0.00 47 1011.4
20260508231016 65 0 0.0 2.0 0.00 0.00 0.00 45 1011.3
20260508230515 65 0 0.0 1.0 0.00 0.00 0.00 46 1011.3
20260508230041 65 0 0.0 1.0 0.00 0.00 0.00 45 1011.2
20260508225518 65 0 0.0 1.0 0.00 0.00 0.00 42 1011.1
20260508225015 65 0 0.0 2.0 0.00 0.00 0.00 42 1011.1
20260508224538 65 0 0.0 2.0 0.00 0.00 0.00 40 1011.1
20260508224018 65 0 0.0 2.0 0.00 0.00 0.00 43 1011.1
20260508223518 66 0 0.0 2.0 0.00 0.00 0.00 39 1011.2
20260508223038 66 210 0.0 2.0 0.00 0.00 0.00 39 1011.2
20260508222520 66 0 0.0 2.0 0.00 0.00 0.00 40 1011.2
20260508222018 66 213 0.0 2.0 0.00 0.00 0.00 41 1011.3
20260508221535 66 0 0.0 2.0 0.00 0.00 0.00 40 1011.3
20260508221018 66 263 0.0 2.0 0.00 0.00 0.00 41 1011.3
20260508220516 66 0 0.0 2.0 0.00 0.00 0.00 38 1011.3
20260508220038 66 263 0.0 2.0 0.00 0.00 0.00 37 1011.3
20260508215515 66 213 1.0 2.0 0.00 0.00 0.00 37 1011.2
20260508215015 67 0 0.0 2.0 0.00 0.00 0.00 40 1011.3
20260508214538 67 0 0.0 2.0 0.00 0.00 0.00 40 1011.3
20260508214015 67 209 0.0 8.0 0.00 0.00 0.00 35 1011.2
20260508213518 67 172 0.0 8.0 0.00 0.00 0.00 36 1011.2
20260508213038 67 190 1.0 8.0 0.00 0.00 0.00 38 1011.2
20260508212522 67 303 1.0 4.0 0.00 0.00 0.00 38 1011.2
20260508212018 67 0 0.0 8.0 0.00 0.00 0.00 35 1011.1
20260508211534 67 0 0.0 8.0 0.00 0.00 0.00 38 1011.2
20260508211018 67 163 1.0 7.0 0.00 0.00 0.00 38 1011.2
20260508210518 67 165 1.0 5.0 0.00 0.00 0.00 35 1011.2
20260508210033 67 218 1.0 5.0 0.00 0.00 0.00 36 1011.2
20260508205517 68 352 1.0 7.0 0.00 0.00 0.00 37 1011.2
20260508205016 68 225 2.0 8.0 0.00 0.00 0.00 34 1011.2
20260508204536 68 0 0.0 8.0 0.00 0.00 0.00 37 1011.2
20260508204015 68 148 1.0 8.0 0.00 0.00 0.00 37 1011.2
20260508203515 68 148 0.0 4.0 0.00 0.00 0.00 36 1011.2
20260508203038 68 190 1.0 4.0 0.00 0.00 0.00 35 1011.4
20260508202516 68 177 0.0 9.0 0.00 0.00 0.00 37 1011.5
20260508202015 68 198 2.0 9.0 0.00 0.00 0.00 31 1011.5
20260508201540 69 299 2.0 9.0 0.00 0.00 0.00 31 1011.7
20260508201021 69 143 1.0 8.0 0.00 0.00 0.00 33 1011.6
20260508200518 69 215 3.0 8.0 0.00 0.00 0.00 34 1011.6
20260508200035 68 0 1.0 6.0 0.00 0.00 0.00 35 1011.6
20260508195518 68 121 1.0 9.0 0.00 0.00 0.00 37 1011.7
20260508195015 68 111 2.0 9.0 0.00 0.00 0.00 31 1011.7
20260508194602 69 177 1.0 8.0 0.00 0.00 0.00 31 1011.9
20260508194015 69 184 3.0 9.0 0.00 0.00 0.00 30 1011.9
20260508193515 70 200 2.0 9.0 0.00 0.00 0.00 36 1012.1
20260508193040 70 352 1.0 7.0 0.00 0.00 0.00 32 1012.2
20260508192521 71 338 1.0 1.0 0.00 0.00 0.00 32 1012.3
20260508192019 71 65 0.0 1.0 0.00 0.00 0.00 30 1012.4
20260508191539 71 3.0 10.0 0.00 0.00 0.00 30 1012.4
20260508191018 71 68 3.0 10.0 0.00 0.00 0.00 30 1012.5
20260508190518 71 207 3.0 10.0 0.00 0.00 0.00 34 1012.6
20260508190039 71 224 2.0 10.0 0.00 0.00 0.00 30 1012.5
20260508185518 71 150 3.0 14.0 0.00 0.00 0.00 33 1012.6
20260508185018 71 127 4.0 14.0 0.00 0.00 0.00 31 1012.7
20260508184535 71 173 3.0 11.0 0.00 0.00 0.00 33 1012.7
20260508184017 71 339 3.0 12.0 0.00 0.00 0.00 34 1012.7
20260508183515 70 352 4.0 12.0 0.00 0.00 0.00 32 1012.7
20260508183032 70 186 3.0 9.0 0.00 0.00 0.00 37 1012.7
20260508182520 70 160 3.0 6.0 0.00 0.00 0.00 32 1012.8
20260508182020 69 81 2.0 10.0 0.00 0.00 0.00 35 1012.8
20260508181601 68 295 1.0 10.0 0.00 0.00 0.00 38 1012.8
20260508181020 68 30 2.0 8.0 0.00 0.00 0.00 34 1012.9
20260508180519 68 178 2.0 8.0 0.00 0.00 0.00 34 1012.9
20260508180040 68 168 1.0 4.0 0.00 0.00 0.00 38 1012.8
20260508175515 68 299 1.0 9.0 0.00 0.00 0.00 39 1012.9
20260508175018 68 231 1.0 9.0 0.00 0.00 0.00 32 1013.0
20260508174530 70 315 3.0 9.0 0.00 0.00 0.00 32 1013.3
20260508174018 70 54 1.0 9.0 0.00 0.00 0.00 38 1013.3
20260508173518 69 175 3.0 11.0 0.00 0.00 0.00 35 1013.3
20260508173040 69 343 2.0 11.0 0.00 0.00 0.00 36 1013.4
20260508172518 69 304 3.0 11.0 0.00 0.00 0.00 35 1013.3
20260508172020 68 302 2.0 11.0 0.00 0.00 0.00 32 1013.4
20260508171535 68 317 4.0 11.0 0.00 0.00 0.00 32 1013.5
20260508171017 68 46 3.0 11.0 0.00 0.00 0.00 36 1013.2
20260508170515 68 143 3.0 9.0 0.00 0.00 0.00 34 1013.5
20260508170033 68 196 3.0 9.0 0.00 0.00 0.00 35 1013.6
20260508165516 68 55 2.0 8.0 0.00 0.00 0.00 34 1013.5
20260508165018 68 261 2.0 12.0 0.00 0.00 0.00 33 1013.6
20260508164538 67 217 3.0 14.0 0.00 0.00 0.00 39 1013.6
20260508164019 67 218 2.0 14.0 0.00 0.00 0.00 37 1013.7
20260508163518 68 268 1.0 6.0 0.00 0.00 0.00 39 1013.8
20260508163031 67 321 2.0 6.0 0.00 0.00 0.00 41 1013.9
20260508162518 67 112 1.0 6.0 0.00 0.00 0.00 37 1013.9
20260508162017 67 34 2.0 13.0 0.00 0.00 0.00 35 1014.0
20260508161535 66 29 2.0 13.0 0.00 0.00 0.00 43 1014.1
20260508161018 66 242 2.0 9.0 0.00 0.00 0.00 34 1014.1
20260508160518 66 205 1.0 7.0 0.00 0.00 0.00 35 1014.1
20260508160033 66 13 3.0 7.0 0.00 0.00 0.00 35 1014.3
20260508155524 66 185 1.0 8.0 0.00 0.00 0.00 40 1014.3
20260508155019 66 151 3.0 8.0 0.00 0.00 0.00 40 1014.4
20260508154533 65 196 2.0 13.0 0.00 0.00 0.00 38 1014.5
20260508154015 65 258 4.0 13.0 0.00 0.00 0.00 38 1014.5
20260508153516 65 134 2.0 7.0 0.00 0.00 0.00 38 1014.7
20260508153041 65 330 2.0 7.0 0.00 0.00 0.00 36 1014.6
20260508152517 65 129 2.0 9.0 0.00 0.00 0.00 41 1014.8
20260508152018 64 143 1.0 9.0 0.00 0.00 0.00 40 1014.9
20260508151538 64 221 4.0 8.0 0.00 0.00 0.00 38 1015.0
20260508151021 64 205 3.0 8.0 0.00 0.00 0.00 37 1015.0
20260508150518 64 122 2.0 8.0 0.00 0.00 0.00 37 1015.1
20260508150035 64 289 2.0 7.0 0.00 0.00 0.00 42 1015.1
20260508145519 64 181 1.0 11.0 0.00 0.00 0.00 37 1015.1
20260508145019 63 148 3.0 11.0 0.00 0.00 0.00 36 1015.2
20260508144533 63 216 3.0 10.0 0.00 0.00 0.00 38 1015.1
20260508144018 63 207 3.0 10.0 0.00 0.00 0.00 36 1015.2
20260508143517 63 120 1.0 7.0 0.00 0.00 0.00 40 1015.1
20260508143032 63 128 2.0 9.0 0.00 0.00 0.00 39 1015.3
20260508142520 63 252 4.0 9.0 0.00 0.00 0.00 38 1015.2
20260508142016 63 182 1.0 6.0 0.00 0.00 0.00 43 1015.1
20260508141532 62 307 2.0 7.0 0.00 0.00 0.00 42 1015.3
20260508141018 62 157 1.0 7.0 0.00 0.00 0.00 40 1015.2
20260508140518 62 349 1.0 7.0 0.00 0.00 0.00 48 1015.3
20260508140039 61 223 1.0 7.0 0.00 0.00 0.00 47 1015.3
20260508135520 61 230 1.0 7.0 0.00 0.00 0.00 47 1015.2
20260508135020 61 215 2.0 7.0 0.00 0.00 0.00 49 1015.3
20260508134538 60 241 1.0 5.0 0.00 0.00 0.00 48 1015.4
20260508134015 60 360 1.0 5.0 0.00 0.00 0.00 46 1015.4
20260508133519 60 350 2.0 5.0 0.00 0.00 0.00 50 1015.5
20260508133045 59 219 2.0 4.0 0.00 0.00 0.00 47 1015.5
20260508132519 59 186 0.0 4.0 0.00 0.00 0.00 55 1015.5
20260508132021 59 324 0.0 4.0 0.00 0.00 0.00 55 1015.5
20260508131544 58 219 1.0 4.0 0.00 0.00 0.00 55 1015.5
20260508131019 58 132 0.0 3.0 0.00 0.00 0.00 58 1015.6
20260508130518 57 227 0.0 3.0 0.00 0.00 0.00 60 1015.6
20260508130038 57 206 1.0 3.0 0.00 0.00 0.00 57 1015.6
20260508125518 56 218 1.0 3.0 0.00 0.00 0.00 61 1015.6
20260508125019 56 201 0.0 3.0 0.00 0.00 0.00 60 1015.6
20260508124537 55 0 0.0 2.0 0.00 0.00 0.00 63 1015.6
20260508124018 54 179 0.0 2.0 0.00 0.00 0.00 65 1015.6
20260508123518 53 190 0.0 3.0 0.00 0.00 0.00 64 1015.5
20260508123050 53 190 1.0 3.0 0.00 0.00 0.00 65 1015.6
20260508122518 52 167 0.0 3.0 0.00 0.00 0.00 68 1015.5
20260508122017 52 222 1.0 2.0 0.00 0.00 0.00 72 1015.5
20260508121538 51 198 1.0 2.0 0.00 0.00 0.00 72 1015.5
20260508121018 50 196 1.0 2.0 0.00 0.00 0.00 75 1015.4
20260508120517 49 199 0.0 2.0 0.00 0.00 0.00 75 1015.4
20260508120042 48 199 0.0 2.0 0.00 0.00 0.00 86 1015.4
20260508115518 47 199 0.0 2.0 0.00 0.00 0.00 88 1015.3
20260508115018 46 196 0.0 2.0 0.00 0.00 0.00 89 1015.4
20260508114538 45 0 0.0 2.0 0.00 0.00 0.00 92 1015.2
20260508114019 44 0 0.0 1.0 0.00 0.00 0.00 93 1015.2
20260508113517 43 0 0.0 1.0 0.00 0.00 0.00 93 1015.1
20260508113041 42 0 0.0 0.0 0.00 0.00 0.00 94 1015.0
20260508112519 42 0 0.0 2.0 0.00 0.00 0.00 94 1015.0
20260508112018 42 0 0.0 2.0 0.00 0.00 0.00 94 1015.0
20260508111538 41 0 0.0 2.0 0.00 0.00 0.00 94 1014.9
20260508111018 41 0 0.0 2.0 0.00 0.00 0.00 94 1014.7
20260508110515 41 0 0.0 2.0 0.00 0.00 0.00 93 1014.7
20260508110032 40 0 0.0 2.0 0.00 0.00 0.00 93 1014.5